Vertical_Velocity
-1 -1 -2 -3 0 -2 1 3 -2 -2 1 4 3 -0 4 1 1 1 -0 2 1 1 -0 1 0 1 1 0 -0 1 1 -0 -1 1 1 1 1 1 1 -0 -0 -0 -0 -1 -0 -1 1 0 0
1 -1 2 -2 2 -3 2 10 1 1 1 -2 2 1 2 -2 0 0 -3 1 2 1 0 0 2 0 1 2 1 -0 1 0 -0 1 1 1 2 1 0 0 -0 2 -0 -0 0 2 3 1 -1
-1 -2 1 4 0 -2 2 3 -1 -7 0 2 -4 -0 0 1 -1 -2 2 -0 2 1 -0 -1 1 1 0 1 1 1 0 1 -0 1 0 0 1 -0 0 -1 1 2 -0 2 -3 -1 1 1 -1
-3 -4 -4 -4 -0 0 -1 2 2 -1 2 -3 -3 -1 -1 1 -1 -0 1 -1 1 0 1 2 0 -1 1 2 -1 1 -0 1 -1 1 -0 1 -0 1 -0 -1 3 1 -0 2 -0 -0 -2 0 -2
-2 1 -3 3 -2 0 -1 4 2 1 1 -2 -1 -2 -2 -0 -1 0 -1 -0 2 -1 -0 1 1 -1 -0 1 2 1 -1 1 2 0 -1 -4 -0 -0 -1 -0 1 -1 -0 2 1 2 -2 -0 1
3 -3 -0 2 4 0 -0 2 -1 -3 3 -1 0 0 -1 3 -0 -0 -1 -0 0 -1 -0 0 0 1 0 -1 1 1 0 0 1 1 -2 -0 -0 -1 2 -2 -1 3 1 1 2 1 -2 -1 2
10 -3 -0 1 6 -3 -0 -1 -2 1 3 3 -0 -1 0 2 -0 0 1 2 1 0 1 0 -0 0 1 2 1 0 1 1 0 -1 1 1 2 -0 -1 7 1 -1 2 4 3 2 -4 -2 3
1 6 -2 4 -1 1 1 0 -1 2 1 4 1 -1 -1 2 0 0 1 -0 -1 -2 -1 1 1 0 0 -0 1 1 1 0 -0 0 2 2 -1 -0 -1 2 1 -2 1 -2 -0 1 -0 -0 -0
1 2 -2 1 3 -0 5 -3 -1 2 2 4 2 -3 0 0 -1 -1 1 -1 -0 0 -1 -1 1 0 1 2 0 1 1 -0 -1 2 1 -1 1 3 -0 1 -2 1 1 0 1 -2 -1 -1 -2
-0 0 -8 -5 -1 -1 -1 -2 2 0 -0 3 -1 -1 -0 1 0 1 -2 -3 -2 0 1 0 0 0 1 2 1 1 1 -1 0 0 1 1 1 0 0 -2 -5 -2 3 1 2 -1 -0 -0 1
-1 2 0 4 1 2 0 3 2 1 0 4 3 1 0 -1 -1 -2 -1 0 -1 0 0 2 1 0 0 -0 1 1 1 -1 0 1 -1 0 -1 2 2 0 0 -3 1 2 -1 -0 -2 -1 -1
5 1 -3 3 -4 0 4 3 3 3 0 1 0 1 1 3 3 3 1 -0 0 1 -0 -0 0 2 2 1 1 2 1 1 0 2 -0 -2 0 1 2 -1 1 -3 -3 2 2 1 2 -1 -1
3 -1 -5 2 3 -5 4 -3 1 -0 -3 2 -0 -0 -0 0 1 3 3 1 2 1 1 1 1 1 2 0 -0 -0 1 -0 0 2 3 0 -2 -0 1 2 0 -2 0 -3 1 0 2 -0 -2
-1 5 1 -0 -2 4 0 -0 1 -3 1 -2 -3 -1 -1 -2 -3 -5 -3 -0 -0 2 0 1 -0 2 2 1 1 -2 1 -0 -1 2 1 1 1 -0 1 -1 1 -3 -1 0 3 1 1 -0 -1
-0 0 3 -1 0 -1 1 1 1 -1 2 -1 1 -2 -2 -3 -3 -1 1 1 -2 0 0 -2 -1 4 2 1 1 0 -1 -0 0 2 1 -1 1 -1 2 -0 -0 0 0 0 -2 -0 2 2 -0
-2 -4 1 -3 -4 -2 -2 -2 -3 0 -2 2 1 -4 -3 0 -1 1 1 -1 -1 -1 -0 1 -1 1 2 1 2 0 -1 1 -3 1 -0 -2 -0 0 2 1 1 2 -1 1 0 0 -2 3 1
-2 -4 -1 -3 -2 -0 -1 0 5 -1 -0 -2 -2 0 -1 1 6 -4 1 2 2 0 1 1 2 -1 -0 -1 -0 3 3 -1 0 0 1 -1 -2 -2 2 -0 0 -0 -2 -1 0 -1 -0 -1 1
-3 -5 -2 1 -1 -3 -2 3 3 1 2 2 -2 -1 0 -0 1 1 1 4 2 0 0 -0 -1 -1 -0 0 1 0 2 -1 1 -1 1 0 -2 3 0 -1 -0 0 -1 0 -0 -3 2 -3 1
-2 -3 6 1 2 1 2 1 2 2 -0 2 3 1 -0 0 -2 -7 5 -2 3 1 2 1 -0 -1 -2 -1 1 2 2 -1 -0 0 0 1 0 0 4 -0 -2 2 0 -1 1 0 -0 -1 1
-0 -1 -0 2 0 -0 0 -1 -5 1 0 3 -3 1 0 2 4 1 -3 -1 2 1 1 0 1 1 0 -1 -1 2 -0 1 2 1 1 -1 1 5 2 -4 0 1 3 3 -2 2 0 1 0
1 -3 -0 2 0 -1 0 -1 -5 -4 -5 -3 5 -1 0 -0 -3 2 -1 -3 -8 -1 0 1 1 0 1 -0 -0 -0 1 -0 0 -1 -1 1 -2 -1 1 4 -5 -4 3 -0 3 0 -1 1 -1
0 -3 -3 -1 -3 -5 -1 2 -2 -3 -1 -1 1 9 3 5 0 -2 -2 -2 -3 -1 2 0 1 5 -1 -2 1 -1 1 1 2 1 -0 1 -1 -1 -0 2 -0 1 1 -2 1 2 1 -1 -1
-6 -1 -5 -4 -2 -2 -2 -2 -0 -3 0 2 -2 -6 -2 -1 -0 -2 -3 -0 -1 -2 0 1 1 -0 -1 0 1 1 -0 -0 -0 0 -0 0 2 -1 0 2 0 2 0 -3 1 2 2 2 -2
1 -1 1 -2 -5 -1 -3 -2 2 -1 2 -8 -3 4 -1 -3 4 1 1 -1 -2 -3 -1 3 -2 -2 -1 -0 -0 1 1 1 -1 -0 0 0 1 -0 -2 -1 2 -1 1 1 -3 2 1 0 3
-1 -1 -2 -6 -3 -1 -4 -4 -4 -3 1 -0 -2 -6 1 -2 -2 -1 -3 -1 -2 -2 -0 -1 -1 -1 -0 -0 -0 1 -0 -0 0 0 -0 0 0 1 0 -1 0 2 -0 1 -2 -4 2 0 2
-2 -3 -2 0 -3 -5 -2 -3 -3 -5 -6 -1 -4 -7 5 2 -6 -1 0 2 -2 -5 -1 -2 1 -1 0 -1 -0 1 1 -1 -1 1 1 1 -2 1 1 1 0 -1 -0 1 1 0 -1 -0 1
-1 -3 -1 -2 -2 0 -1 -5 -4 -3 -3 -2 -3 3 2 7 7 -1 -1 -2 -0 0 -3 -2 0 2 -0 -1 -1 1 1 1 -1 1 0 1 0 -1 -1 -0 1 1 -1 0 1 1 -2 1 1
0 -3 -1 -2 -1 -3 -5 -2 -4 0 -1 -4 -4 -2 -3 -1 7 1 -1 -3 -1 -2 -2 -3 -2 1 0 2 4 -1 -2 -1 -1 1 1 -0 1 1 2 2 -0 0 0 -0 1 1 -2 2 1
0 -0 -1 -1 -2 -2 -4 -2 -1 -6 -7 -7 -4 -4 0 -2 3 -2 -2 -2 -1 -3 -1 -2 -2 0 0 -1 -0 1 -2 -3 3 2 3 1 2 -1 1 3 1 2 0 1 1 0 -0 -2 1
0 -0 1 1 1 -1 -3 2 -4 -2 -7 2 -4 -3 3 4 -1 0 2 1 1 2 1 3 -2 -0 0 -2 -1 -1 -1 -0 4 1 2 0 -0 0 -1 1 1 2 1 1 -3 2 0 4 -2
Height
5918 5918 5919 5920 5922 5919 5917 5920 5919 5918 5920 5921 5920 5918 5919 5920 5920 5921 5917 5916 5917 5915 5915 5914 5914 5914 5915 5916 5917 5918 5917 5918 5918 5918 5918 5916 5915 5914 5913 5913 5911 5910 5908 5905 5903 5900 5897 5895 5892
5922 5921 5922 5924 5924 5921 5921 5923 5923 5923 5924 5924 5923 5923 5923 5924 5923 5920 5919 5919 5919 5918 5917 5917 5917 5917 5918 5919 5920 5920 5919 5920 5921 5921 5921 5920 5919 5918 5917 5916 5915 5913 5911 5908 5905 5902 5900 5898 5895
5923 5924 5925 5927 5926 5924 5925 5924 5925 5925 5927 5928 5925 5925 5926 5926 5924 5922 5922 5921 5921 5920 5919 5919 5919 5919 5920 5921 5922 5922 5922 5922 5923 5923 5923 5922 5922 5921 5920 5919 5917 5916 5914 5911 5908 5906 5903 5901 5898
5922 5923 5925 5925 5925 5927 5927 5927 5929 5928 5929 5928 5928 5927 5928 5928 5926 5925 5924 5923 5923 5922 5921 5921 5921 5922 5922 5922 5923 5924 5924 5925 5926 5926 5925 5924 5924 5924 5923 5921 5921 5918 5916 5914 5911 5909 5906 5905 5903
5921 5923 5925 5927 5926 5928 5928 5930 5930 5929 5930 5930 5931 5930 5930 5929 5928 5927 5927 5926 5926 5925 5923 5924 5924 5923 5924 5924 5924 5925 5926 5927 5926 5927 5926 5927 5927 5926 5926 5925 5924 5921 5919 5916 5913 5912 5910 5908 5907
5923 5924 5927 5929 5928 5928 5929 5931 5930 5931 5931 5932 5931 5931 5931 5931 5930 5929 5929 5929 5928 5926 5926 5927 5927 5926 5926 5927 5926 5927 5928 5928 5928 5927 5928 5929 5929 5928 5928 5927 5925 5924 5922 5919 5916 5915 5914 5912 5911
5926 5927 5929 5930 5931 5931 5931 5933 5932 5933 5933 5933 5931 5930 5932 5932 5931 5931 5931 5930 5929 5928 5928 5928 5929 5928 5928 5928 5928 5929 5929 5929 5929 5929 5930 5931 5929 5930 5930 5929 5927 5926 5924 5924 5922 5919 5918 5915 5914
5926 5928 5929 5930 5930 5933 5932 5932 5933 5936 5936 5935 5932 5932 5932 5933 5932 5932 5932 5931 5930 5930 5930 5929 5930 5929 5929 5930 5929 5930 5930 5930 5929 5930 5931 5932 5931 5930 5931 5931 5929 5928 5927 5926 5925 5923 5921 5919 5917
5929 5929 5927 5929 5932 5932 5932 5932 5933 5937 5936 5936 5934 5933 5934 5934 5933 5933 5933 5932 5931 5931 5931 5931 5931 5930 5929 5930 5930 5930 5930 5930 5930 5930 5931 5932 5933 5932 5931 5931 5931 5930 5929 5928 5927 5926 5925 5923 5920
5931 5930 5929 5929 5930 5931 5932 5934 5936 5937 5936 5937 5936 5934 5934 5934 5934 5934 5933 5932 5932 5932 5932 5932 5931 5931 5930 5930 5931 5931 5930 5930 5931 5931 5931 5932 5933 5933 5932 5933 5931 5932 5932 5930 5930 5929 5929 5927 5925
5933 5932 5932 5933 5933 5933 5934 5937 5937 5937 5938 5938 5938 5937 5937 5936 5934 5934 5933 5933 5933 5933 5933 5933 5933 5933 5932 5932 5932 5932 5930 5930 5931 5932 5932 5932 5933 5934 5933 5933 5934 5933 5933 5933 5932 5931 5932 5930 5928
5936 5934 5932 5934 5933 5933 5936 5938 5938 5940 5939 5940 5939 5939 5938 5937 5937 5936 5935 5934 5933 5933 5934 5934 5934 5934 5933 5932 5932 5932 5931 5929 5930 5931 5932 5932 5933 5934 5934 5933 5934 5934 5934 5933 5934 5934 5934 5932 5931
5936 5937 5937 5935 5935 5934 5937 5938 5939 5941 5940 5940 5939 5940 5938 5938 5937 5936 5935 5935 5934 5934 5934 5934 5935 5934 5934 5934 5934 5933 5932 5930 5928 5929 5930 5931 5932 5934 5935 5933 5934 5935 5935 5934 5935 5935 5935 5934 5932
5936 5938 5940 5939 5936 5938 5940 5940 5942 5942 5942 5941 5940 5940 5939 5937 5935 5933 5933 5934 5935 5935 5936 5936 5935 5935 5935 5935 5934 5933 5932 5930 5929 5929 5929 5930 5932 5933 5935 5934 5934 5935 5936 5935 5937 5936 5936 5935 5934
5937 5938 5939 5939 5940 5941 5943 5945 5944 5943 5943 5943 5943 5942 5940 5938 5936 5936 5935 5935 5934 5935 5936 5936 5935 5935 5935 5936 5935 5933 5932 5931 5930 5930 5929 5930 5931 5933 5934 5934 5935 5936 5937 5937 5936 5937 5937 5937 5937
5941 5942 5941 5942 5942 5943 5945 5947 5945 5945 5945 5945 5944 5944 5942 5940 5939 5938 5937 5936 5934 5934 5934 5935 5933 5934 5934 5935 5934 5933 5932 5932 5931 5929 5929 5930 5931 5933 5934 5934 5935 5937 5937 5938 5939 5938 5938 5939 5939
5942 5942 5943 5944 5944 5947 5947 5948 5949 5947 5946 5945 5946 5945 5943 5942 5943 5939 5939 5938 5936 5934 5934 5934 5933 5932 5932 5933 5933 5933 5932 5931 5931 5929 5929 5928 5930 5933 5934 5935 5935 5936 5937 5937 5939 5938 5938 5939 5939
5944 5944 5945 5946 5948 5948 5948 5950 5950 5949 5948 5946 5946 5946 5945 5943 5942 5941 5939 5938 5937 5935 5934 5932 5932 5931 5931 5931 5931 5931 5931 5930 5930 5930 5929 5928 5930 5932 5933 5933 5935 5936 5936 5936 5937 5939 5938 5939 5939
5944 5944 5946 5946 5948 5948 5947 5947 5947 5948 5948 5948 5946 5945 5945 5944 5942 5941 5940 5938 5938 5935 5934 5932 5931 5930 5930 5931 5931 5930 5928 5929 5929 5928 5928 5929 5930 5931 5933 5932 5933 5935 5936 5936 5936 5938 5938 5938 5939
5943 5944 5945 5946 5948 5948 5946 5945 5944 5948 5948 5949 5947 5947 5947 5946 5944 5942 5941 5937 5936 5936 5934 5933 5932 5931 5930 5929 5929 5929 5928 5928 5928 5927 5928 5927 5927 5929 5929 5931 5931 5933 5934 5935 5936 5937 5938 5938 5939
5942 5942 5944 5945 5946 5946 5946 5946 5941 5944 5946 5947 5948 5946 5946 5946 5944 5943 5941 5940 5935 5935 5935 5933 5932 5931 5930 5929 5928 5928 5928 5927 5927 5926 5927 5927 5926 5927 5928 5929 5930 5930 5932 5934 5936 5936 5937 5938 5938
5942 5941 5942 5943 5943 5943 5944 5946 5943 5942 5944 5946 5949 5949 5947 5946 5944 5942 5941 5939 5936 5935 5935 5933 5931 5930 5929 5928 5927 5926 5925 5925 5925 5925 5925 5925 5925 5924 5925 5926 5927 5928 5929 5931 5934 5935 5936 5937 5937
5939 5939 5939 5940 5940 5942 5943 5944 5943 5942 5943 5943 5943 5943 5942 5941 5940 5939 5937 5936 5936 5934 5933 5933 5929 5927 5927 5927 5927 5925 5924 5923 5924 5924 5923 5923 5924 5923 5922 5923 5924 5926 5927 5929 5931 5933 5935 5936 5937
5937 5937 5939 5937 5938 5941 5939 5940 5941 5942 5941 5939 5939 5940 5941 5938 5936 5935 5934 5933 5932 5932 5932 5931 5929 5926 5924 5924 5924 5924 5924 5924 5923 5923 5922 5922 5921 5921 5921 5921 5923 5924 5924 5926 5929 5930 5932 5934 5935
5935 5934 5934 5935 5935 5938 5936 5937 5939 5939 5940 5940 5938 5935 5937 5938 5934 5934 5934 5932 5930 5930 5930 5929 5928 5925 5923 5923 5923 5923 5923 5923 5922 5922 5921 5920 5920 5920 5920 5919 5920 5921 5922 5924 5925 5928 5929 5931 5933
5928 5930 5932 5931 5932 5934 5934 5934 5937 5937 5937 5938 5937 5935 5935 5938 5935 5933 5933 5930 5929 5927 5928 5927 5926 5924 5923 5922 5922 5922 5922 5920 5919 5919 5918 5918 5918 5918 5918 5918 5917 5918 5920 5920 5923 5924 5926 5928 5930
5923 5924 5928 5927 5928 5929 5930 5932 5933 5934 5935 5935 5934 5932 5934 5936 5937 5934 5932 5929 5928 5927 5926 5925 5924 5923 5922 5922 5922 5920 5920 5918 5917 5916 5916 5916 5916 5915 5916 5916 5916 5916 5917 5917 5919 5920 5921 5923 5926
5919 5920 5922 5923 5923 5924 5924 5927 5927 5929 5931 5930 5930 5930 5931 5932 5934 5934 5932 5928 5928 5927 5925 5924 5923 5922 5922 5921 5920 5919 5917 5916 5915 5914 5914 5913 5913 5913 5913 5914 5914 5913 5913 5914 5914 5915 5916 5918 5921
5913 5916 5918 5920 5920 5920 5921 5922 5924 5924 5926 5927 5928 5929 5930 5929 5929 5931 5931 5927 5926 5925 5924 5923 5921 5920 5920 5918 5918 5916 5914 5912 5912 5911 5911 5911 5910 5910 5909 5910 5910 5910 5910 5910 5910 5911 5912 5913 5916
5907 5910 5913 5915 5918 5917 5916 5918 5919 5921 5924 5925 5924 5926 5928 5929 5928 5927 5928 5924 5923 5923 5923 5921 5919 5918 5916 5915 5914 5912 5910 5909 5908 5907 5907 5907 5907 5906 5905 5905 5905 5905 5905 5906 5906 5908 5908 5909 5911